Location: Girdwood
(60.9430°N, 149.1660°W)
Time: 11:56:31
(UTC-08:00)

Amateur Radio Satellites - All Passes

Search period start: 23 October 2014 11:26
Search period end: 24 October 2014 11:26
Location: Girdwood, 60.9430°N, 149.1660°W

Satellite Date Start Highest point End Downlink Frequencies (MHz)
Time Altitude Azimuth
Oscar 19 23 Oct 11:27:14 11:30:00 15° 33° (NNE) 11:32:46 437.125 CW, 437.150 USB
AO-27 23 Oct 11:42:05 11:44:16 13° 27° (NNE) 11:46:27 436.795 MHz FM
JAS-2 23 Oct 11:43:36 11:48:29 20° 335° (NNW) 11:53:37 435.800 - 435.900 CW/SSB, 435.910 FM
FUNcube-1 23 Oct 11:54:08 11:58:07 34° 95° (E) 12:02:00 145.950 - 145.970 MHz USB
JAS-1B 23 Oct 11:54:13 11:58:20 21° 36° (NE) 12:02:33 435.800 - 435.900 CW/SSB
Oscar 11 23 Oct 12:00:08 12:04:28 67° 104° (ESE) 12:08:45 145.825 FM, Beacon 2401.500 USB
Oscar 16 23 Oct 12:10:59 12:14:54 23° 44° (NE) 12:18:50 437.025 USB, Beacon 2401.1428
KITSAT 1 23 Oct 12:17:54 12:21:26 14° 96° (E) 12:24:58 435.175 FM
AO-Echo 23 Oct 12:19:04 12:22:19 17° 38° (NE) 12:25:37 ?
Uribyol 2 23 Oct 12:28:27 12:32:01 19° 39° (NE) 12:35:35 436.500 FM
ITAMSAT 1 23 Oct 12:34:00 12:37:37 19° 39° (NE) 12:41:16 435.822 SSB
AO-7 23 Oct 12:39:24 12:45:44 25° 10° (N) 12:52:05 29.400 - 29.500 MHz
Saudisat 1A 23 Oct 12:41:16 12:45:39 60° 346° (NNW) 12:50:04 436.775 MHz
ZACube-1 23 Oct 12:45:10 12:49:35 81° 106° (ESE) 12:53:51 437.345 MHz
Gurwin Techsat 1B 23 Oct 12:45:45 12:48:58 17° 35° (NE) 12:52:12 435.225 FM
Sapphire 23 Oct 12:45:52 12:51:21 84° 36° (NE) 12:56:49 437.095 MHz 1200 baud AX-25 AFSK
UKube-1 23 Oct 12:53:23 12:57:40 52° 297° (WNW) 13:01:55 145.840 MHz, 145.915 MHz
TMSAT-1 23 Oct 12:58:03 13:01:12 16° 34° (NE) 13:04:22 436.925 FM
Oscar 19 23 Oct 13:03:27 13:08:12 39° 56° (NE) 13:12:57 437.125 CW, 437.150 USB
PCSat 23 Oct 13:08:40 13:14:08 78° 222° (SW) 13:19:34 145.825 MHz
HO-68 23 Oct 13:12:39 13:19:27 47° 310° (NW) 13:26:13 435.675 MHz FM
AO-27 23 Oct 13:17:54 13:22:24 30° 50° (NE) 13:26:54 436.795 MHz FM
JAS-2 23 Oct 13:27:25 13:31:09 15° 1° (N) 13:35:04 435.800 - 435.900 CW/SSB, 435.910 FM
FUNcube-1 23 Oct 13:30:29 13:34:43 49° 296° (WNW) 13:38:49 145.950 - 145.970 MHz USB
Oscar 11 23 Oct 13:36:43 13:40:23 28° 305° (NW) 13:44:03 145.825 FM, Beacon 2401.500 USB
JAS-1B 23 Oct 13:42:27 13:48:05 60° 61° (ENE) 13:53:46 435.800 - 435.900 CW/SSB
Oscar 16 23 Oct 13:48:27 13:53:36 71° 66° (ENE) 13:58:45 437.025 USB, Beacon 2401.1428
AO-Echo 23 Oct 13:55:18 14:00:06 49° 61° (ENE) 14:05:05 ?
Uosat F 23 Oct 14:04:15 14:06:27 13° 29° (NNE) 14:08:39 435.120 FM
Uribyol 2 23 Oct 14:05:30 14:10:35 54° 61° (ENE) 14:15:42 436.500 FM
KITSAT 1 23 Oct 14:07:18 14:14:44 43° 120° (ESE) 14:22:11 435.175 FM
ITAMSAT 1 23 Oct 14:11:09 14:16:15 55° 62° (ENE) 14:21:23 435.822 SSB
Saudisat 1A 23 Oct 14:21:20 14:25:43 56° 9° (N) 14:30:06 436.775 MHz
ZACube-1 23 Oct 14:22:04 14:25:35 24° 308° (NW) 14:29:02 437.345 MHz
Gurwin Techsat 1B 23 Oct 14:22:50 14:27:51 44° 58° (ENE) 14:32:53 435.225 FM
AO-7 23 Oct 14:29:15 14:36:40 39° 36° (NE) 14:44:07 29.400 - 29.500 MHz
Sapphire 23 Oct 14:29:32 14:34:27 35° 239° (WSW) 14:39:20 437.095 MHz 1200 baud AX-25 AFSK
UKube-1 23 Oct 14:30:28 14:33:04 16° 318° (NW) 14:35:40 145.840 MHz, 145.915 MHz
TMSAT-1 23 Oct 14:35:02 14:40:01 42° 57° (ENE) 14:45:01 436.925 FM
SO-50 23 Oct 14:40:39 14:44:04 21° 121° (ESE) 14:47:33 436.795 FM
Oscar 19 23 Oct 14:42:23 14:47:28 58° 258° (WSW) 14:52:34 437.125 CW, 437.150 USB
PCSat 23 Oct 14:52:32 14:56:56 26° 245° (WSW) 15:01:19 145.825 MHz
AO-27 23 Oct 14:56:17 15:01:32 82° 252° (WSW) 15:06:49 436.795 MHz FM
HO-68 23 Oct 15:00:24 15:05:46 23° 335° (NNW) 15:11:07 435.675 MHz FM
FUNcube-1 23 Oct 15:07:52 15:10:14 15° 318° (NW) 15:12:34 145.950 - 145.970 MHz USB
JAS-2 23 Oct 15:09:09 15:13:51 21° 26° (NNE) 15:18:51 435.800 - 435.900 CW/SSB, 435.910 FM
Oscar 16 23 Oct 15:28:54 15:33:25 30° 268° (W) 15:37:57 437.025 USB, Beacon 2401.1428
JAS-1B 23 Oct 15:33:57 15:39:15 37° 265° (W) 15:44:33 435.800 - 435.900 CW/SSB
AO-Echo 23 Oct 15:34:18 15:39:01 42° 263° (W) 15:43:56 ?
Uosat F 23 Oct 15:39:31 15:43:57 32° 52° (NE) 15:48:25 435.120 FM
Uribyol 2 23 Oct 15:45:20 15:50:17 41° 263° (W) 15:55:15 436.500 FM
ITAMSAT 1 23 Oct 15:51:05 15:55:59 39° 263° (W) 16:00:55 435.822 SSB
Saudisat 1A 23 Oct 16:01:06 16:05:33 81° 212° (SSW) 16:09:59 436.775 MHz
KITSAT 1 23 Oct 16:01:30 16:09:37 89° 326° (NW) 16:17:46 435.175 FM
Gurwin Techsat 1B 23 Oct 16:02:38 16:07:50 52° 259° (W) 16:13:04 435.225 FM
Hamsat 23 Oct 16:09:50 16:11:28 12° 40° (NE) 16:13:07 145.90 MHz
UOSAT-12 23 Oct 16:12:02 16:15:14 18° 118° (ESE) 16:18:27 437.025 FM, 437.400 FM
TMSAT-1 23 Oct 16:14:43 16:19:55 54° 259° (W) 16:25:10 436.925 FM
ISS 23 Oct 16:18:28 16:20:07 13° 161° (SSE) 16:21:45 145.800 FM
SO-50 23 Oct 16:19:23 16:23:57 67° 143° (SE) 16:28:40 436.795 FM
AO-7 23 Oct 16:20:28 16:28:45 83° 61° (ENE) 16:37:06 29.400 - 29.500 MHz
Oscar 19 23 Oct 16:25:12 16:27:58 14° 280° (W) 16:30:43 437.125 CW, 437.150 USB
AO-27 23 Oct 16:37:57 16:41:52 21° 274° (W) 16:45:49 436.795 MHz FM
HO-68 23 Oct 16:46:49 16:51:19 18° 1° (N) 16:55:49 435.675 MHz FM
JAS-2 23 Oct 16:51:20 16:57:17 42° 51° (NE) 17:03:58 435.800 - 435.900 CW/SSB, 435.910 FM
Uosat F 23 Oct 17:17:26 17:22:28 72° 254° (WSW) 17:27:34 435.120 FM
AO-Echo 23 Oct 17:18:50 17:19:17 10° 286° (WNW) 17:19:44 ?
Saudisat 1A 23 Oct 17:41:00 17:44:41 26° 234° (SW) 17:48:21 436.775 MHz
Hamsat 23 Oct 17:42:33 17:46:30 41° 62° (ENE) 17:50:27 145.90 MHz
Gurwin Techsat 1B 23 Oct 17:46:34 17:49:06 13° 282° (WNW) 17:51:38 435.225 FM
UOSAT-12 23 Oct 17:49:59 17:54:37 59° 140° (SE) 17:59:18 437.025 FM, 437.400 FM
ISS 23 Oct 17:53:39 17:55:56 17° 181° (S) 17:58:12 145.800 FM
KITSAT 1 23 Oct 17:57:39 18:05:41 62° 353° (N) 18:13:44 435.175 FM
TMSAT-1 23 Oct 17:58:26 18:01:06 14° 281° (WNW) 18:03:47 436.925 FM
SO-50 23 Oct 18:00:02 18:04:40 62° 346° (NNW) 18:09:26 436.795 FM
AO-7 23 Oct 18:14:51 18:22:26 38° 266° (W) 18:30:04 29.400 - 29.500 MHz
SO-67 23 Oct 18:15:32 18:17:43 16° 52° (NE) 18:19:55 435.3500 MHz FM
HO-68 23 Oct 18:31:26 18:36:55 24° 27° (NNE) 18:42:24 435.675 MHz FM
JAS-2 23 Oct 18:35:48 18:42:04 71° 256° (WSW) 18:49:13 435.800 - 435.900 CW/SSB, 435.910 FM
OPAL 23 Oct 18:44:36 18:48:58 29° 95° (E) 18:53:16 ?
Uosat F 23 Oct 18:58:49 19:02:11 18° 276° (W) 19:05:35 435.120 FM
Hamsat 23 Oct 19:18:34 19:22:31 39° 263° (W) 19:26:30 145.90 MHz
UOSAT-12 23 Oct 19:30:08 19:34:51 65° 343° (NNW) 19:39:36 437.025 FM, 437.400 FM
ISS 23 Oct 19:30:20 19:31:43 12° 201° (SSW) 19:33:06 145.800 FM
SO-50 23 Oct 19:41:05 19:45:45 59° 10° (N) 19:50:32 436.795 FM
SO-67 23 Oct 19:46:47 19:50:14 86° 71° (ENE) 19:53:43 435.3500 MHz FM
KITSAT 1 23 Oct 19:53:55 20:02:02 71° 21° (NNE) 20:10:08 435.175 FM
Oscar 11 23 Oct 19:56:26 19:58:04 12° 38° (NE) 19:59:43 145.825 FM, Beacon 2401.500 USB
AO-7 23 Oct 20:15:47 20:18:06 11° 292° (WNW) 20:20:25 29.400 - 29.500 MHz
HO-68 23 Oct 20:16:28 20:23:19 50° 52° (NE) 20:30:12 435.675 MHz FM
OPAL 23 Oct 20:23:19 20:28:20 72° 297° (WNW) 20:33:17 ?
JAS-2 23 Oct 20:23:47 20:28:35 22° 282° (WNW) 20:33:49 435.800 - 435.900 CW/SSB, 435.910 FM
STRAND 1 23 Oct 20:26:47 20:31:36 37° 96° (E) 20:36:22 ?
ZACube-1 23 Oct 20:41:35 20:44:00 14° 41° (NE) 20:46:23 437.345 MHz
UKube-1 23 Oct 20:47:22 20:50:55 25° 51° (NE) 20:54:29 145.840 MHz, 145.915 MHz
UOSAT-12 23 Oct 21:10:49 21:15:31 57° 7° (N) 21:20:12 437.025 FM, 437.400 FM
SO-67 23 Oct 21:21:43 21:23:45 15° 273° (W) 21:25:47 435.3500 MHz FM
SO-50 23 Oct 21:21:48 21:26:35 79° 213° (SSW) 21:31:27 436.795 FM
FUNcube-1 23 Oct 21:24:58 21:28:33 24° 51° (NE) 21:32:06 145.950 - 145.970 MHz USB
Oscar 11 23 Oct 21:29:15 21:33:16 38° 60° (ENE) 21:37:17 145.825 FM, Beacon 2401.500 USB
KITSAT 1 23 Oct 21:49:37 21:57:37 67° 227° (SW) 22:05:35 435.175 FM
OPAL 23 Oct 22:02:41 22:06:36 23° 319° (NW) 22:10:28 ?
HO-68 23 Oct 22:03:53 22:11:00 63° 255° (WSW) 22:18:11 435.675 MHz FM
STRAND 1 23 Oct 22:05:59 22:11:04 58° 297° (WNW) 22:16:08 ?
ZACube-1 23 Oct 22:15:09 22:19:31 46° 63° (ENE) 22:23:49 437.345 MHz
UKube-1 23 Oct 22:22:21 22:26:44 82° 252° (WSW) 22:31:09 145.840 MHz, 145.915 MHz
Oscar 10/S400 23 Oct 22:28:52 23:01:49 27° 200° (SSW) 02:07:50 145.825 - 145.975 CW/USB, Beacon 145.810 USB
RS-15 23 Oct 22:38:27 22:46:31 25° 102° (ESE) 22:54:35 29.354 - 29.394 USB, Beacon 29.352 USB
UOSAT-12 23 Oct 22:51:13 22:56:00 87° 209° (SSW) 23:00:45 437.025 FM, 437.400 FM
FUNcube-1 23 Oct 22:59:56 23:04:31 89° 249° (WSW) 23:09:01 145.950 - 145.970 MHz USB
SO-50 23 Oct 23:02:40 23:06:42 27° 235° (SW) 23:10:46 436.795 FM
Oscar 11 23 Oct 23:05:16 23:09:27 45° 261° (W) 23:13:38 145.825 FM, Beacon 2401.500 USB
OPAL 23 Oct 23:42:26 23:44:00 11° 343° (NNW) 23:45:33 ?
KITSAT 1 23 Oct 23:45:28 23:51:46 26° 252° (WSW) 23:58:04 435.175 FM
STRAND 1 23 Oct 23:45:48 23:49:26 20° 320° (NW) 23:53:03 ?
ZACube-1 23 Oct 23:51:45 23:56:02 39° 263° (W) 00:00:17 437.345 MHz
HO-68 23 Oct 23:55:13 00:00:15 20° 279° (W) 00:05:20 435.675 MHz FM
UKube-1 24 Oct 00:00:42 00:03:38 18° 273° (W) 00:06:36 145.840 MHz, 145.915 MHz
AO-40 24 Oct 00:29:23 00:46:48 10° 215° (SW) 01:05:00 Beacon 2401.320
UOSAT-12 24 Oct 00:31:37 00:35:47 31° 232° (SW) 00:39:55 437.025 FM, 437.400 FM
FUNcube-1 24 Oct 00:38:11 00:41:31 20° 273° (W) 00:44:50 145.950 - 145.970 MHz USB
MaSat-1 24 Oct 00:42:30 00:43:49 12° 110° (ESE) 00:45:05 437.345 MHz
RS-15 24 Oct 00:45:59 00:56:37 62° 130° (SE) 01:07:22 29.354 - 29.394 USB, Beacon 29.352 USB
Oscar 16 24 Oct 01:51:21 01:53:23 12° 78° (ENE) 01:55:25 437.025 USB, Beacon 2401.1428
MaSat-1 24 Oct 02:15:07 02:18:54 53° 128° (SE) 02:22:16 437.345 MHz
Oscar 19 24 Oct 02:43:37 02:47:54 26° 90° (E) 02:52:10 437.125 CW, 437.150 USB
OPAL 24 Oct 02:55:03 02:58:06 16° 31° (NNE) 03:01:08 ?
RS-15 24 Oct 02:57:50 03:08:49 81° 340° (NNW) 03:20:02 29.354 - 29.394 USB, Beacon 29.352 USB
AO-27 24 Oct 02:59:33 03:03:11 19° 84° (E) 03:06:47 436.795 MHz FM
JAS-1B 24 Oct 03:04:10 03:09:52 36° 94° (E) 03:16:24 435.800 - 435.900 CW/SSB
Oscar 16 24 Oct 03:29:01 03:34:02 50° 100° (E) 03:39:01 437.025 USB, Beacon 2401.1428
AO-Echo 24 Oct 03:30:29 03:35:20 35° 94° (E) 03:40:11 ?
Uribyol 2 24 Oct 03:47:10 03:52:01 37° 95° (E) 03:56:49 436.500 FM
MaSat-1 24 Oct 03:51:11 03:54:41 38° 328° (NNW) 03:57:48 437.345 MHz
ITAMSAT 1 24 Oct 03:52:58 03:57:52 38° 96° (E) 04:02:44 435.822 SSB
Gurwin Techsat 1B 24 Oct 04:08:12 04:12:58 32° 93° (E) 04:17:43 435.225 FM
AO-7 24 Oct 04:11:29 04:15:52 15° 73° (ENE) 04:20:14 29.400 - 29.500 MHz
TMSAT-1 24 Oct 04:19:57 04:24:41 31° 92° (E) 04:29:23 436.925 FM
Oscar 19 24 Oct 04:22:42 04:27:51 80° 292° (WNW) 04:32:59 437.125 CW, 437.150 USB
OPAL 24 Oct 04:31:11 04:35:57 41° 53° (NE) 04:40:40 ?
AO-27 24 Oct 04:38:22 04:43:39 73° 106° (ESE) 04:48:53 436.795 MHz FM
STRAND 1 24 Oct 04:38:33 04:41:13 14° 32° (NNE) 04:43:53 ?
JAS-1B 24 Oct 04:54:58 05:01:03 72° 295° (WNW) 05:08:10 435.800 - 435.900 CW/SSB
Oscar 16 24 Oct 05:08:34 05:13:26 44° 302° (WNW) 05:18:16 437.025 USB, Beacon 2401.1428
AO-Echo 24 Oct 05:09:13 05:14:26 63° 295° (WNW) 05:19:42 ?
RS-15 24 Oct 05:11:08 05:22:08 75° 11° (N) 05:33:28 29.354 - 29.394 USB, Beacon 29.352 USB
Uosat F 24 Oct 05:15:21 05:18:52 19° 85° (E) 05:22:22 435.120 FM
Sapphire 24 Oct 05:21:26 05:25:50 26° 116° (ESE) 05:30:15 437.095 MHz 1200 baud AX-25 AFSK
Uribyol 2 24 Oct 05:26:38 05:31:48 59° 297° (WNW) 05:36:55 436.500 FM
MaSat-1 24 Oct 05:28:27 05:31:03 19° 350° (N) 05:33:26 437.345 MHz
ITAMSAT 1 24 Oct 05:32:29 05:37:38 57° 298° (WNW) 05:42:45 435.822 SSB
JAS-2 24 Oct 05:33:42 05:38:45 19° 75° (ENE) 05:43:56 435.800 - 435.900 CW/SSB, 435.910 FM
PCSat 24 Oct 05:43:21 05:48:14 35° 121° (ESE) 05:53:09 145.825 MHz
Gurwin Techsat 1B 24 Oct 05:48:05 05:53:23 68° 294° (WNW) 05:58:40 435.225 FM
TMSAT-1 24 Oct 05:59:46 06:05:05 70° 294° (WNW) 06:10:22 436.925 FM
Oscar 19 24 Oct 06:02:33 06:06:38 25° 314° (NW) 06:10:42 437.125 CW, 437.150 USB
AO-7 24 Oct 06:03:08 06:11:06 47° 99° (E) 06:19:03 29.400 - 29.500 MHz
OPAL 24 Oct 06:09:43 06:14:46 56° 254° (WSW) 06:19:47 ?
STRAND 1 24 Oct 06:14:31 06:19:12 37° 55° (NE) 06:23:55 ?
AO-27 24 Oct 06:18:14 06:22:53 33° 308° (NW) 06:27:31 436.795 MHz FM
JAS-1B 24 Oct 06:46:13 06:51:05 26° 318° (NW) 06:56:28 435.800 - 435.900 CW/SSB
AO-Echo 24 Oct 06:48:34 06:52:26 21° 317° (NW) 06:56:20 ?
Oscar 16 24 Oct 06:48:41 06:51:44 16° 324° (NW) 06:54:46 437.025 USB, Beacon 2401.1428
Uosat F 24 Oct 06:53:27 06:58:33 75° 107° (ESE) 07:03:37 435.120 FM
Hamsat 24 Oct 06:53:56 06:57:09 21° 88° (E) 07:00:21 145.90 MHz
Sapphire 24 Oct 07:03:13 07:08:39 79° 138° (SE) 07:14:07 437.095 MHz 1200 baud AX-25 AFSK
MaSat-1 24 Oct 07:05:07 07:07:39 21° 14° (NNE) 07:09:58 437.345 MHz
Uribyol 2 24 Oct 07:06:43 07:10:27 20° 319° (NW) 07:14:10 436.500 FM
ITAMSAT 1 24 Oct 07:12:36 07:16:17 20° 320° (NW) 07:19:58 435.822 SSB
JAS-2 24 Oct 07:18:03 07:25:28 55° 98° (E) 07:33:10 435.800 - 435.900 CW/SSB, 435.910 FM
RS-15 24 Oct 07:23:54 07:34:52 75° 221° (SW) 07:46:13 29.354 - 29.394 USB, Beacon 29.352 USB
PCSat 24 Oct 07:25:53 07:31:20 83° 324° (NW) 07:36:49 145.825 MHz
Gurwin Techsat 1B 24 Oct 07:28:36 07:32:38 23° 317° (NW) 07:36:40 435.225 FM
TMSAT-1 24 Oct 07:40:14 07:44:18 23° 316° (NW) 07:48:22 436.925 FM
Oscar 19 24 Oct 07:43:23 07:44:27 11° 337° (NNW) 07:45:31 437.125 CW, 437.150 USB
OPAL 24 Oct 07:52:07 07:54:46 14° 276° (W) 07:57:26 ?
STRAND 1 24 Oct 07:53:08 07:58:15 62° 256° (WSW) 08:03:24 ?
AO-7 24 Oct 07:56:10 08:04:27 71° 303° (WNW) 08:12:43 29.400 - 29.500 MHz
AO-27 24 Oct 07:58:37 08:01:06 14° 331° (NNW) 08:03:35 436.795 MHz FM
Hamsat 24 Oct 08:29:25 08:33:37 78° 289° (WNW) 08:37:49 145.90 MHz
Uosat F 24 Oct 08:32:37 08:37:02 31° 309° (NW) 08:41:27 435.120 FM
SO-67 24 Oct 08:33:14 08:36:12 26° 93° (E) 08:39:09 435.3500 MHz FM
JAS-1B 24 Oct 08:37:17 08:39:57 13° 344° (NNW) 08:42:44 435.800 - 435.900 CW/SSB
MaSat-1 24 Oct 08:40:52 08:43:54 55° 38° (NE) 08:46:36 437.345 MHz
Sapphire 24 Oct 08:47:08 08:52:27 52° 342° (NNW) 08:57:48 437.095 MHz 1200 baud AX-25 AFSK
JAS-2 24 Oct 09:03:20 09:10:39 60° 300° (WNW) 09:18:20 435.800 - 435.900 CW/SSB, 435.910 FM
Gurwin Techsat 1B 24 Oct 09:10:00 09:10:57 11° 340° (NNW) 09:11:54 435.225 FM
PCSat 24 Oct 09:10:03 09:15:19 47° 349° (N) 09:20:36 145.825 MHz
HO-68 24 Oct 09:20:44 09:25:30 18° 79° (E) 09:30:15 435.675 MHz FM
TMSAT-1 24 Oct 09:21:33 09:22:35 11° 340° (NNW) 09:23:37 436.925 FM
Saudisat 1A 24 Oct 09:35:07 09:38:52 28° 127° (SE) 09:42:39 436.775 MHz
STRAND 1 24 Oct 09:35:28 09:38:31 16° 278° (W) 09:41:36 ?
RS-15 24 Oct 09:36:18 09:45:45 35° 249° (WSW) 09:55:32 29.354 - 29.394 USB, Beacon 29.352 USB
AO-7 24 Oct 09:49:04 09:56:16 35° 329° (NNW) 10:03:29 29.400 - 29.500 MHz
SO-67 24 Oct 10:06:02 10:09:22 45° 294° (WNW) 10:12:41 435.3500 MHz FM
Hamsat 24 Oct 10:06:04 10:09:02 19° 311° (NW) 10:12:01 145.90 MHz
Uosat F 24 Oct 10:12:25 10:14:32 13° 331° (NNW) 10:16:38 435.120 FM
MaSat-1 24 Oct 10:16:59 10:19:15 21° 243° (WSW) 10:21:20 437.345 MHz
JAS-1B 24 Oct 10:25:53 10:28:17 13° 13° (NNE) 10:30:45 435.800 - 435.900 CW/SSB
Sapphire 24 Oct 10:31:30 10:36:45 46° 7° (N) 10:42:00 437.095 MHz 1200 baud AX-25 AFSK
Oscar 11 24 Oct 10:42:55 10:46:01 19° 87° (E) 10:49:06 145.825 FM, Beacon 2401.500 USB
JAS-2 24 Oct 10:48:39 10:54:33 27° 323° (NW) 11:00:45 435.800 - 435.900 CW/SSB, 435.910 FM
PCSat 24 Oct 10:54:20 10:59:38 49° 14° (NNE) 11:04:55 145.825 MHz
Oscar 19 24 Oct 10:57:19 10:58:58 12° 26° (NNE) 11:00:37 437.125 CW, 437.150 USB
HO-68 24 Oct 11:07:45 11:14:53 58° 103° (ESE) 11:21:58 435.675 MHz FM
Saudisat 1A 24 Oct 11:13:37 11:18:02 85° 149° (SSE) 11:22:30 436.775 MHz
AO-27 24 Oct 11:15:03 11:16:00 11° 20° (NNE) 11:16:57 436.795 MHz FM
